Location: Cucq
(50.4773°N, 1.6202°E)
Time: 16:45:16
(UTC+00:00)

Cosmos 1975 Rocket - Pass Details

Date: 07 August 2020
Orbit: 603 x 635 km, 82.5° (Epoch: 25 September)

Event Time Altitude Azimuth Distance (km) Brightness Sun altitude
Rises 00:38:39 0° 346° (NNW) 2,946 7.6 -22.6°
Reaches altitude 10° 00:40:56 10° 343° (NNW) 2,033 6.5 -22.6°
Maximum altitude 00:45:21 57° 265° (W) 750 3.3 -22.4°
Enters shadow 00:45:37 56° 248° (WSW) 759 3.2 -22.4°
